Time,TemperatureF,DewpointF,PressureIn,WindDirection,WindDirectionDegrees,WindSpeedMPH,WindSpeedGustMPH,Humidity,HourlyPrecipIn,Conditions,Clouds,dailyrainin,SoftwareType,DateUTC
2013-03-25 00:00:00,19.0,18.0,-100.00,SSE,148,9.0,14.0,95,-99.99,,,-99.99,,2013-03-25 07:00:00,
2013-03-25 01:00:00,20.0,19.0,-100.00,SE,145,6.0,14.0,95,-99.99,,,-99.99,,2013-03-25 08:00:00,
2013-03-25 02:00:00,19.0,18.0,-100.00,SSE,152,10.0,14.0,95,-99.99,,,-99.99,,2013-03-25 09:00:00,
2013-03-25 03:00:00,19.0,18.0,-100.00,SE,140,12.0,18.0,95,-99.99,,,-99.99,,2013-03-25 10:00:00,
2013-03-25 04:00:00,22.0,21.0,-100.00,SE,146,16.0,20.0,95,-99.99,,,-99.99,,2013-03-25 11:00:00,
2013-03-25 05:00:00,23.0,22.0,-100.00,SSE,155,13.0,18.0,96,-99.99,,,-99.99,,2013-03-25 12:00:00,
2013-03-25 06:00:00,22.0,21.0,-100.00,SE,146,12.0,16.0,96,-99.99,,,-99.99,,2013-03-25 13:00:00,
2013-03-25 07:00:00,22.0,21.0,-100.00,South,175,12.0,17.0,95,-99.99,,,-99.99,,2013-03-25 14:00:00,
2013-03-25 08:00:00,28.0,27.0,-100.00,SSW,204,12.0,16.0,97,-99.99,,,-99.99,,2013-03-25 15:00:00,
2013-03-25 09:00:00,29.0,28.0,-100.00,SSW,197,13.0,18.0,97,-99.99,,,-99.99,,2013-03-25 16:00:00,
2013-03-25 10:00:00,31.0,30.0,-100.00,SSW,198,18.0,23.0,97,-99.99,,,-99.99,,2013-03-25 17:00:00,
2013-03-25 11:00:00,30.0,29.0,-100.00,SSW,196,16.0,24.0,97,-99.99,,,-99.99,,2013-03-25 18:00:00,
2013-03-25 13:00:00,34.0,34.0,-100.00,SE,143,8.0,12.0,98,-99.99,,,-99.99,,2013-03-25 20:00:00,
2013-03-25 15:00:00,35.0,33.0,-100.00,East,100,7.0,13.0,91,-99.99,,,-99.99,,2013-03-25 22:00:00,
2013-03-25 16:00:00,36.0,33.0,-100.00,SE,138,6.0,12.0,90,-99.99,,,-99.99,,2013-03-25 23:00:00,
2013-03-25 17:00:00,35.0,33.0,-100.00,SE,145,6.0,13.0,92,-99.99,,,-99.99,,2013-03-26 00:00:00,
2013-03-25 18:00:00,34.0,32.0,-100.00,SE,133,7.0,12.0,94,-99.99,,,-99.99,,2013-03-26 01:00:00,
2013-03-25 19:00:00,32.0,32.0,-100.00,SE,142,10.0,16.0,99,-99.99,,,-99.99,,2013-03-26 02:00:00,
2013-03-25 20:00:00,29.0,28.0,-100.00,South,173,12.0,16.0,96,-99.99,,,-99.99,,2013-03-26 03:00:00,
2013-03-25 21:00:00,28.0,27.0,-100.00,SSW,210,13.0,17.0,96,-99.99,,,-99.99,,2013-03-26 04:00:00,
2013-03-25 22:00:00,28.0,27.0,-100.00,SSW,213,10.0,17.0,97,-99.99,,,-99.99,,2013-03-26 05:00:00,
2013-03-25 23:00:00,29.0,28.0,-100.00,West,267,7.0,15.0,97,-99.99,,,-99.99,,2013-03-26 06:00:00,